星链-3393 (STARLINK-3393 )

导读

STARLINK-3393是美国太空探索技术公司(SpaceX)星链星座中的一颗低轨通信卫星,于2022年1月19日发射入轨。星链项目旨在通过大规模低轨卫星星座,为全球尤其是偏远地区提供高速低延迟的互联网接入服务。该卫星采用平板设计,搭载霍尔推进器,具备自主避撞能力,服役期满后会主动离轨再入大气层烧毁,目前处于在轨运行状态,支撑星链全球通信网络服务。

基本信息
目录编号:
51132
目录名称:
STARLINK-3393
国际标识:
2022-005AE
轨道中心:
EARTH
卫星名称:
星链-3393
卫星全名:
星链-3393 (STARLINK-3393 )
卫星状态:
在轨 (已飞行1689 天)
发射日期:
2022-01-19 UTC
国别 :
美国 (US)
星等 :
--
轨道信息
数据来源 国际轨道数据 AOE轨道数据
星历时间 2026-09-02T14:21:57+0800
1天前
查看轨道信息
2026-08-31T22:00:00+0800
3天前
查看轨道信息
半长轴 6843.341km 6843.434km
偏心率 0.000136 0.0000704
轨道倾角 53.162° 53.165°
近地点辐角 76.089° 33.367°
升交点赤经 223.020° 230.879°
平近点角 284.026° 35.944°
近地点 464.273km 464.815km
远地点 466.135km 465.779km
周期 93.899分钟 93.901分钟
每日圈数 15.335591 15.335278
详细信息
固有亮度:
5
最大亮度:
2.5
卫星平台:
Starlink v1.5
覆盖范围:
全球
运营商:
太空探索技术公司
运营商所在国:
美国
制造商(研发单位):
太空探索技术公司
制造商所在国:
美国
使用方式:
暂无
卫星简介
星链(Starlink)计划是由太空探索技术公司(SpaceX)提出的一个巨型低轨卫星互联网星座项目,计划在2019年至2024年间在太空搭建由约1.2万颗卫星组成的“星链”网络,其中1584颗将部署在地球上空550千米处的近地轨道,并从2020年开始工作。该卫星仍在工作。
2D轨道图
3D轨道图
轨道高度分析图
轨道倾角分析图
轨道综合分析图
查看轨道综合分析图
交会数据列表
事件ID 空间交会对象 最接近时刻(TCA) 交会距离 交会风险概率(CRP) 交会风险指数(CRI) 操作
CDM_260904-203405-113206-670321
2026-09-04T
20:34:12+0000
1.432 km
极远距离
7.015302E-6 低风险 0.52
CDM_260904-163905-113206-670322
2026-09-04T
16:39:25+0000
1.808 km
极远距离
3.388722E-6 低风险 0.46
CDM_260903-113405-113206-955122
2026-09-03T
11:34:28+0000
2.139 km
极远距离
1.744121E-6 低风险 0.4
CDM_260903-211705-113206-166921
2026-09-03T
21:17:12+0000
2.384 km
极远距离
1.586127E-6 低风险 0.39
CDM_260903-110505-113206-033021
2026-09-03T
11:05:24+0000
2.364 km
极远距离
1.554291E-6 低风险 0.39
CDM_260828-223405-113206-904422
2026-08-28T
22:34:36+0000
2.659 km
极远距离
1.548674E-6 低风险 0.39
CDM_260904-220805-113206-670321
2026-09-04T
22:08:06+0000
2.553 km
极远距离
1.542067E-6 低风险 0.39
CDM_260904-150505-113206-670321
2026-09-04T
15:05:30+0000
2.578 km
极远距离
1.511314E-6 低风险 0.39
CDM_260903-032005-113205-209321
2026-09-03T
03:20:37+0000
2.537 km
极远距离
1.473044E-6 低风险 0.38
CDM_260904-224705-113206-933822
2026-09-04T
22:47:43+0000
2.425 km
极远距离
1.417365E-6 低风险 0.38